This is the latest recevied weather packets stored in our database for station/object KC3WWU. If no packets are shown the sender has not sent any weather packets the latest 10 day(s).
| Time | Temp. | Humidity | Pressure | Rain* | Wind** | Luminosity | Snow |
|---|---|---|---|---|---|---|---|
| 1778065431 | 11.67° C | 99% | 1005 hPa | 1.27 mm | - | 8 W/m² | - |
| 1778065128 | 11.67° C | 99% | 1004.9 hPa | 1.27 mm | - | 5 W/m² | - |
| 1778064824 | 11.67° C | 99% | 1004.9 hPa | 1.78 mm | - | 4 W/m² | - |
| 1778064522 | 11.67° C | 99% | 1004.9 hPa | 1.78 mm | - | 3 W/m² | - |
| 1778064219 | 11.67° C | 99% | 1004.8 hPa | 0 mm | - | 4 W/m² | - |
| 1778063917 | 11.67° C | 99% | 1004.8 hPa | 0 mm | - | 4 W/m² | - |
| 1778063613 | 11.67° C | 99% | 1004.7 hPa | 0 mm | - | 5 W/m² | - |
| 1778063311 | 11.67° C | 99% | 1004.8 hPa | 1.78 mm | - | 3 W/m² | - |
| 1778063009 | 11.67° C | 99% | 1004.4 hPa | 1.78 mm | - | 2 W/m² | - |
| 1778062706 | 11.67° C | 99% | 1004.7 hPa | 0 mm | - | 2 W/m² | - |
| 1778062401 | 11.67° C | 99% | 1005.1 hPa | 1.27 mm | - | 1 W/m² | - |
| 1778062100 | 11.67° C | 99% | 1004.9 hPa | 1.27 mm | - | 1 W/m² | - |
| 1778061798 | 11.67° C | 99% | 1005 hPa | 0 mm | - | 0 W/m² | - |
| 1778061496 | 11.67° C | 99% | 1005 hPa | 0 mm | - | 0 W/m² | - |
| 1778061192 | 11.67° C | 99% | 1005.1 hPa | 1.78 mm | - | 0 W/m² | - |
| 1778060889 | 11.67° C | 99% | 1005.1 hPa | 1.78 mm | - | 0 W/m² | - |
| 1778060588 | 11.67° C | 99% | 1005.1 hPa | 0 mm | - | 0 W/m² | - |
| 1778060286 | 11.67° C | 99% | 1005 hPa | 1.27 mm | - | 0 W/m² | - |
| 1778059983 | 11.67° C | 99% | 1004.9 hPa | 1.27 mm | - | 0 W/m² | - |
| 1778059681 | 11.67° C | 99% | 1005 hPa | 0 mm | - | 0 W/m² | - |
| 1778059378 | 11.67° C | 99% | 1005 hPa | 0 mm | - | 0 W/m² | - |
| 1778059075 | 11.67° C | 99% | 1005.1 hPa | 0 mm | - | 0 W/m² | - |
| 1778058772 | 11.67° C | 99% | 1005.3 hPa | 0 mm | - | 0 W/m² | - |
| 1778058470 | 11.67° C | 99% | 1005.2 hPa | 0 mm | - | 0 W/m² | - |
| 1778058167 | 11.67° C | 99% | 1005.1 hPa | 0 mm | - | 0 W/m² | - |
* Rain latest hour (hover to see other rain measurements)
** Current wind speed in m/s (hover to see current wind gust speed)